Weather History for Thermal, CA

Change the Weather History Date:

Tuesday, April 9, 2013

  Actual Average Record
Temperature  
Mean Temperature 70 °F 68 °F  
Max Temperature 82 °F 86 °F 103 °F (1989)
Min Temperature 58 °F 51 °F 40 °F (1973)
Degree Days  
Heating Degree Days 0 1  
Month to date heating degree days 0 10  
Since 1 July heating degree days 1122 1167  
Cooling Degree Days 5 5  
Month to date cooling degree days 84 37  
Year to date cooling degree days 246 111  
Growing Degree Days 20 (Base 50)    
Moisture  
Dew Point 21 °F    
Average Humidity 21    
Maximum Humidity 36    
Minimum Humidity 6    
Precipitation  
Precipitation 0.00 in 0.00 in 0.47 in (1975)
Month to date precipitation 0.00 0.03  
Year to date precipitation 0.44 1.74  
Since 1 July precipitation 2.62 3.12  
Snow  
Snow 0.00 in - - ()
Month to date snowfall 0.0  
Year to date snowfall 0.0  
Since 1 July snowfall 0.0  
Snow Depth 0.00 in    
Sea Level Pressure  
Sea Level Pressure 29.79 in    
Wind  
Wind Speed 13 mph (NW)    
Max Wind Speed 23 mph    
Max Gust Speed 31 mph    
Visibility 10 miles    
Events      
T = Trace of Precipitation, MM = Missing Value Source: NWS Daily Summary

Daily Weather History Graph

Daily Weather History Graph

Search for Another Location

Airport:

Trip Planner

Search our weather history database for the weather conditions in past years. The results will help you decide how hot, cold, wet, or windy it might be!

Date:

Astronomy

Apr. 09, 2013 Rise Set
Actual Time 6:21 AM PDT 7:11 PM PDT
Civil Twilight 5:55 AM PDT 7:36 PM PDT
Nautical Twilight 5:26 AM PDT 8:06 PM PDT
Astronomical Twilight 4:55 AM PDT 8:37 PM PDT
Moon 5:45 AM PDT (4/9) 6:50 PM PDT (4/9)
Length of Visible Light 13h 40m
Length of Day
12h 50m
Waning Crescent, 0% of the Moon is Illuminated
Apr 9
Waning Crescent
Apr 10
New
Apr 18
First Quarter
Apr 25
Full
May 2
Last Quarter

Hourly Weather History & Observations

Time (PDT) Temp. Dew Point Humidity Pressure Visibility Wind Dir Wind Speed Gust Speed Precip Events Conditions
12:52 AM 62.1 °F 33.1 °F 34% 29.69 in 10.0 mi NNW 15.0 mph 21.9 mph N/A   Clear
1:52 AM 62.1 °F 32.0 °F 32% 29.70 in 10.0 mi NNW 12.7 mph - N/A   Clear
2:52 AM 62.1 °F 32.0 °F 32% 29.70 in 10.0 mi NW 11.5 mph - N/A   Clear
3:52 AM 60.1 °F 32.0 °F 35% 29.72 in 10.0 mi NNW 11.5 mph - N/A   Clear
4:52 AM 60.1 °F 33.1 °F 36% 29.74 in 10.0 mi NW 11.5 mph - N/A   Clear
5:52 AM 60.1 °F 30.9 °F 33% 29.77 in 10.0 mi NNW 10.4 mph - N/A   Clear
6:52 AM 59.0 °F 30.0 °F 33% 29.79 in 10.0 mi NNW 10.4 mph - N/A   Clear
7:52 AM 64.0 °F 26.1 °F 24% 29.81 in 10.0 mi NW 12.7 mph - N/A   Clear
8:52 AM 69.1 °F 21.9 °F 17% 29.83 in 10.0 mi NW 16.1 mph - N/A   Clear
9:52 AM 71.1 °F 18.0 °F 13% 29.83 in 10.0 mi NW 13.8 mph 25.3 mph N/A   Clear
10:52 AM 73.0 °F 16.0 °F 11% 29.84 in 10.0 mi NNW 18.4 mph 25.3 mph N/A   Clear
11:52 AM 75.9 °F 16.0 °F 10% 29.82 in 10.0 mi NW 13.8 mph 24.2 mph N/A   Clear
12:52 PM 79.0 °F 15.1 °F 9% 29.82 in 10.0 mi North 23.0 mph 29.9 mph N/A   Clear
1:52 PM 79.0 °F 17.1 °F 10% 29.79 in 10.0 mi West 12.7 mph 19.6 mph N/A   Clear
2:52 PM 79.0 °F 16.0 °F 9% 29.78 in 10.0 mi West 10.4 mph 16.1 mph N/A   Clear
3:52 PM 81.0 °F 9.0 °F 6% 29.76 in 10.0 mi NNW 16.1 mph - N/A   Clear
4:52 PM 80.1 °F 12.9 °F 8% 29.76 in 10.0 mi NW 8.1 mph - N/A   Clear
5:52 PM 80.1 °F 15.1 °F 9% 29.76 in 10.0 mi West 9.2 mph - N/A   Clear
6:52 PM 77.0 °F 16.0 °F 10% 29.77 in 10.0 mi West 8.1 mph - N/A   Clear
7:52 PM 64.9 °F 12.0 °F 13% 29.79 in 10.0 mi North 3.5 mph - N/A   Clear
8:52 PM 71.1 °F 10.0 °F 9% 29.83 in 10.0 mi NNW 6.9 mph - N/A   Clear
9:52 PM 69.1 °F 19.9 °F 15% 29.87 in 10.0 mi NNW 10.4 mph - N/A   Clear
10:52 PM 68.0 °F 26.1 °F 21% 29.89 in 10.0 mi NNW 12.7 mph - N/A   Clear
11:52 PM 68.0 °F 25.0 °F 20% 29.92 in 10.0 mi NNW 11.5 mph - N/A   Clear